Regional Weather Roundup
Issued by NWS

Home | Current Version | Previous Version | Text Only | Print | Product List | Glossary On
Versions: 1 2 3 4 5 6 7 8 9 10 11 12 13 14 15 16 17 18 19 20 21 22 23 24 25 26 27 28 29 30 31 32 33 34 35 36 37 38 39 40 41 42 43 44 45 46 47 48 49 50
000
ASUS43 KDMX 202106
RWRIA

WEATHER ROUNDUP FOR IOWA
NATIONAL WEATHER SERVICE DES MOINES IA
400 PM CDT SUN AUG 20 2017

NOTE: "FAIR" INDICATES FEW OR NO CLOUDS BELOW 12,000 FEET WITH NO
SIGNIFICANT WEATHER AND/OR OBSTRUCTIONS TO VISIBILITY.

* - THESE STATIONS ARE NOT NWS STATIONS...THUS NOT UNDER NWS
QUALITY CONTROL.  THEY ALSO DO NOT REPORT WEATHER SUCH
AS PRECIPITATION OR FOG.

IAZ001>003-012>014-020>022-031>034-043>046-202200-
   NORTHWEST IOWA

CITY           SKY/WX    TMP DP  RH WIND       PRES   REMARKS
CARROLL *      SUNNY     84  72  65 VRB5      29.95R HX  89
CHEROKEE *     SUNNY     86  65  49 S6        29.95S HX  88
DENISON *      SUNNY     84  70  61 SW6       29.97S HX  88
LE MARS *      SUNNY    100 N/A N/A SE8       29.94S
ORANGE CITY *  MOSUNNY   84  70  61 SE3       29.96S HX  88
SHELDON *      SUNNY     84  68  58 VRB3      29.95S HX  87
SIOUX CITY     MOSUNNY   86  70  58 SW7       29.93F HX  90
SPENCER        SUNNY     85  66  53 W5        29.95F HX  87
STORM LAKE *   SUNNY     82  68  61 S6        29.96F HX  85
$$

IAZ055>058-069>071-079>083-090>094-202200-
   SOUTHWEST IOWA

CITY           SKY/WX    TMP DP  RH WIND       PRES   REMARKS
ATLANTIC *     CLOUDY    73  68  83 S6        29.98S
AUDUBON *      MOSUNNY   84  72  65 S7        29.98R HX  89
CLARINDA *     CLOUDY    72  70  94 E8        30.00R
COUNCIL BLFS * CLOUDY    77  72  83 S10G16    29.96F
CRESTON *      CLOUDY    70  66  88 W6        30.02R
HARLAN  *      MOSUNNY   81  70  69 SW6       30.00S HX  84
LAMONI         CLOUDY    73  64  73 SW8       29.97F
RED OAK *      CLOUDY    72  68  88 CALM      29.97F
SHENANDOAH *   CLOUDY    79  70  73 SE8       29.97S HX  81
$$

IAZ047>049-059>061-072>074-084-202200-
   CENTRAL IOWA

CITY           SKY/WX    TMP DP  RH WIND       PRES   REMARKS
AMES           CLOUDY    85  72  65 SW7       29.94S HX  91
ANKENY *       CLOUDY    81  68  65 VRB3      29.97R HX  83
BOONE *        SUNNY     86  68  54 SW6       29.95R HX  89
CHARITON *     CLOUDY    73  66  78 NW3       29.98F
DES MOINES     CLOUDY    80  66  62 CALM      29.96R HX  82
GRINNELL*      CLOUDY    77  67  72 CALM      30.00R
KNOXVILLE *    CLOUDY    77  66  69 W6G12     29.97S
MARSHALLTOWN   CLOUDY    82  67  60 CALM      29.96R HX  84
NEWTON *       CLOUDY    77  68  73 VRB5      29.98R
PELLA *        PTSUNNY   77  67  70 W6        29.99R
PERRY *          N/A     85  73  67 SW5       29.96R HX  91
$$

IAZ004>006-015-016-023>025-035-036-202200-
   NORTH CENTRAL IOWA

CITY           SKY/WX    TMP DP  RH WIND       PRES   REMARKS
ALGONA *       SUNNY     84  66  54 SW6       29.96S HX  86
CLARION *      SUNNY     82  70  65 NW12      29.95S HX  86
ESTHERVILLE    SUNNY     82  68  62 CALM      29.95F HX  85
FORT DODGE *   SUNNY     84  64  51 W3        29.96S HX  86
MASON CITY     SUNNY     85  67  54 NW9       29.97R HX  87
FOREST CITY *    N/A     82  68  61 NW7       29.96S HX  85
WEBSTER CITY * SUNNY     86  68  54 NW5       29.93S HX  89
IOWA FALLS *     N/A     85  64  50 CALM      29.97R HX  86
$$

IAZ007>011-017>019-026>030-037>042-050>054-066-202200-
   NORTHEAST IOWA

CITY           SKY/WX    TMP DP  RH WIND       PRES   REMARKS
CEDAR RAPIDS   CLOUDY    79  66  64 S8        29.98R HX  81
CHARLES CITY * SUNNY     84  66  54 CALM      29.96R HX  86
CLINTON *      CLOUDY    75  69  81 SE7       30.00R
DECORAH *      SUNNY     82  64  54 CALM      29.95R HX  84
DUBUQUE        CLOUDY    74  66  76 SE13      29.97F
MONTICELLO *   CLOUDY    73  68  83 S9        29.97F
OELWEIN *      SUNNY     84  68  58 SE10      29.96S HX  87
WATERLOO       MOSUNNY   86  61  42 SW8       29.94R HX  86
$$

IAZ064-065-067-068-078-202200-
   EAST CENTRAL IOWA

CITY           SKY/WX    TMP DP  RH WIND       PRES   REMARKS
DAVENPORT      CLOUDY    77  69  76 E7        30.01R
IOWA CITY      CLOUDY    81  67  62 E6        29.99R HX  83
MUSCATINE *    MOSUNNY   84  68  58 E8        29.97S HX  87
QUAD CITIES    CLOUDY    80  69  69 SE5       29.98R HX  83
$$

IAZ062-063-075>077-085>089-095>099-202200-
   SOUTHEAST IOWA

CITY           SKY/WX    TMP DP  RH WIND       PRES   REMARKS
BURLINGTON     PTSUNNY   84  71  65 S7        29.98R HX  89
FAIRFIELD *    CLOUDY    82  64  54 W12       29.96R HX  84
FORT MADISON * CLOUDY    82  72  69 S9        29.99R HX  87
KEOKUK *       PTSUNNY   84  68  58 S9G17     29.98R HX  87
OSKALOOSA *      N/A     78  68  69 W5        29.99R HX  81
OTTUMWA        PTSUNNY   81  66  60 W7        29.98R HX  83
WASHINGTON *   CLOUDY    81  72  74 E7        29.98S HX  84
$$

ABBREVIATIONS USED IN REMARKS
   TC - TEMPERATURES IN CELSIUS
  WCI - WIND CHILL INDEX
   HX - HEAT INDEX
  VSB - VISIBILITY
$$





USA.gov is the U.S. government's official web portal to all federal, state and local government web resources and services.